(216416) = 2008 SD92

Discovered at Kitt Peak on 2008-09-21 by Spacewatch.

Orbit

Orbit type: Main Belt

Note: WebGL enabled browser required.

epoch2024-03-31.0
epoch JD2460400.5
perihelion date2021-02-28.81673
perihelion JD2459274.31673
argument of perihelion (°)344.99513
ascending node (°)335.82817
inclination (°)1.44454
eccentricity0.2102203
perihelion distance (AU)2.0833881
Tisserand w.r.t. Jupiter3.4
ΔV w.r.t. Earth (km/sec)9.1
semimajor axis (AU)2.6379359
mean anomaly (°)259.06966
mean daily motion (°/day)0.23004220
aphelion distance (AU)3.192
period (years)4.28
P-vector [x]0.77523514
P-vector [y]-0.57692131
P-vector [z]-0.25723973
Q-vector [x]0.63158841
Q-vector [y]0.70129070
Q-vector [z]0.33058649
absolute magnitude16.83
phase slope0.15
uncertainty0
referenceMPEC 2024-F50
observations used319
oppositions15
arc length (days)10427
first opposition used1995
last opposition used2024
residual rms (arc-secs)0.81
perturbers coarse indicatorM-v
perturbers precise indicator003Ek
first observation date used1995-09-01.0
last observation date used2024-03-19.0
computer nameMPCLINUX
JD of orbit computation2456639.837056
perihelion JD uncertainty (days)8.7793E-05
argument of perihelion uncertainty (°)2.8686E-04
ascending node uncertainty (°)2.8614E-04
inclination uncertainty (°)1.0129E-05
eccentricity uncertainty 8.0883E-08
perihelion distance uncertainty (AU)2.1473E-07
Minimum Orbit Intersection Distances (in AU)
for orbit epoch: 2460400.5, reference: E2024-GD4
Mercury1.66388
Venus1.35645
Earth1.07048
Mars0.69645
Jupiter2.1171
Saturn5.96196
Uranus15.2791
Neptune27.0427

Observations

322 total observations over interval: 1995 09 01.29514 – 2024 03 19.529177
These data are available for download (format description).

Date (UT) J2000 RA J2000 Dec Magn Location Ref
1995 09 01.29514 23 52 02.74 -00 14 01.0 20.4 V 809 – European Southern Observatory, La Silla MPS 270277
1995 09 18.23611 23 38 35.62 -01 23 38.6 19.3 V 809 – European Southern Observatory, La Silla MPS 270277
1995 09 19.14167 23 37 50.65 -01 27 40.5 19.1 V 809 – European Southern Observatory, La Silla MPS 270277
1995 09 19.20694 23 37 47.22 -01 27 57.4 19.1 V 809 – European Southern Observatory, La Silla MPS 270277
1995 09 20.18264 23 36 58.74 -01 32 17.3 18.1 V 809 – European Southern Observatory, La Silla MPS 270277
1995 09 29.28538 23 29 50.22 -02 10 57.6 19.6 V 691 – Steward Observatory, Kitt Peak-Spacewatch MPS 270277
1995 09 29.30634 23 29 49.24 -02 11 03.1   691 – Steward Observatory, Kitt Peak-Spacewatch MPS 270277
1995 09 29.32743 23 29 48.27 -02 11 08.3   691 – Steward Observatory, Kitt Peak-Spacewatch MPS 270277
2002 03 05.21644 10 22 35.48 +10 05 55.3 22.0 V 691 – Steward Observatory, Kitt Peak-Spacewatch MPS 270277
2002 03 05.22104 10 22 35.24 +10 05 56.8 21.9 V 691 – Steward Observatory, Kitt Peak-Spacewatch MPS 270277
2002 03 05.22555 10 22 34.98 +10 05 58.0 21.8 V 691 – Steward Observatory, Kitt Peak-Spacewatch MPS 270277
2007 03 14.40738 14 26 34.11 -16 05 49.6 21.2 V G96 – Mt. Lemmon Survey MPS 270277
2007 03 14.41579 14 26 33.97 -16 05 49.3 21.1 V G96 – Mt. Lemmon Survey MPS 270277
2007 03 14.42417 14 26 33.82 -16 05 49.4 20.7 V G96 – Mt. Lemmon Survey MPS 270277
2007 03 14.43256 14 26 33.72 -16 05 48.9 21.1 V G96 – Mt. Lemmon Survey MPS 270277
2007 04 19.31369 14 04 17.83 -14 38 25.5 20.0 V G96 – Mt. Lemmon Survey MPS 270277
2007 04 19.31980 14 04 17.47 -14 38 25.0 19.7 V G96 – Mt. Lemmon Survey MPS 270277
2007 04 19.32584 14 04 17.14 -14 38 22.4 19.7 V G96 – Mt. Lemmon Survey MPS 270277
2007 04 19.33182 14 04 16.82 -14 38 20.9 19.8 V G96 – Mt. Lemmon Survey MPS 270277
2007 05 12.27354 13 43 57.43 -12 53 03.7 20.2 V G96 – Mt. Lemmon Survey MPS 270277
2007 05 12.27917 13 43 57.18 -12 53 02.4 20.5 V G96 – Mt. Lemmon Survey MPS 270277
2007 05 12.28480 13 43 56.92 -12 53 00.7 20.4 V G96 – Mt. Lemmon Survey MPS 270277
2007 05 12.29042 13 43 56.60 -12 52 59.1 20.3 V G96 – Mt. Lemmon Survey MPS 270277
2008 09 07.35241 01 35 02.14 +11 16 32.3 20.1 V G96 – Mt. Lemmon Survey MPS 259389
2008 09 07.35852 01 35 02.00 +11 16 32.7 20.2 V G96 – Mt. Lemmon Survey MPS 259389
2008 09 07.36463 01 35 01.86 +11 16 32.5 20.3 V G96 – Mt. Lemmon Survey MPS 259389
2008 09 07.37074 01 35 01.71 +11 16 32.2 20.3 V G96 – Mt. Lemmon Survey MPS 259389
2008 09 21.24903 01 28 00.88 +10 50 50.2 20.6 V 691 – Steward Observatory, Kitt Peak-Spacewatch MPS 258173
2008 09 21.26664 01 28 00.13 +10 50 47.2 20.4 V 691 – Steward Observatory, Kitt Peak-Spacewatch MPS 258173
2008 09 21.28459 01 27 59.33 +10 50 44.3 20.5 V 691 – Steward Observatory, Kitt Peak-Spacewatch MPS 258173
2008 09 25.24176 01 25 07.26 +10 37 46.1 19.6 V 691 – Steward Observatory, Kitt Peak-Spacewatch MPS 258173
2008 09 25.25938 01 25 06.41 +10 37 42.3 19.5 V 691 – Steward Observatory, Kitt Peak-Spacewatch MPS 258173
2008 09 25.27700 01 25 05.58 +10 37 38.7 19.6 V 691 – Steward Observatory, Kitt Peak-Spacewatch MPS 258173
2008 10 01.28520 01 20 12.25 +10 14 04.1 19.5   704 – Lincoln Laboratory ETS, New Mexico MPS 258173
2008 10 01.29743 01 20 11.64 +10 14 00.4 19.9   704 – Lincoln Laboratory ETS, New Mexico MPS 258173
2008 10 01.30965 01 20 11.04 +10 13 57.1 19.8   704 – Lincoln Laboratory ETS, New Mexico MPS 258173
2008 10 01.32185 01 20 10.29 +10 13 54.3 20.2   704 – Lincoln Laboratory ETS, New Mexico MPS 258173
2008 10 01.33419 01 20 09.72 +10 13 51.5 20.0   704 – Lincoln Laboratory ETS, New Mexico MPS 258173
2008 10 03.20603 01 18 32.86 +10 05 42.7   691 – Steward Observatory, Kitt Peak-Spacewatch MPS 259389
2008 10 03.22366 01 18 31.92 +10 05 38.1   691 – Steward Observatory, Kitt Peak-Spacewatch MPS 259389
2008 10 03.24130 01 18 30.96 +10 05 33.5   691 – Steward Observatory, Kitt Peak-Spacewatch MPS 259389
2008 10 05.91132 01 16 09.37 +09 53 23.8 19.6 R 106 – Crni Vrh MPS 259389
2008 10 05.91967 01 16 08.86 +09 53 22.5 19.3 R 106 – Crni Vrh MPS 259389
2008 10 05.92803 01 16 08.51 +09 53 20.6 18.8 R 106 – Crni Vrh MPS 259389
2008 10 05.93639 01 16 08.03 +09 53 17.4 18.8 R 106 – Crni Vrh MPS 259389
2008 10 07.22563 01 14 58.96 +09 47 18.5 19.2 V 691 – Steward Observatory, Kitt Peak-Spacewatch MPS 259389
2008 10 07.24330 01 14 58.00 +09 47 13.3 19.3 V 691 – Steward Observatory, Kitt Peak-Spacewatch MPS 259389
2008 10 07.26095 01 14 56.99 +09 47 08.6 19.4 V 691 – Steward Observatory, Kitt Peak-Spacewatch MPS 259389
2008 10 21.21952 01 02 43.80 +08 39 37.6 19.3 V G96 – Mt. Lemmon Survey MPS 260705
2008 10 21.22950 01 02 43.40 +08 39 34.6 18.4 V G96 – Mt. Lemmon Survey MPS 260705
2008 10 21.23450 01 02 43.04 +08 39 33.4 19.2 V G96 – Mt. Lemmon Survey MPS 260705
2008 10 25.24834 00 59 34.27 +08 21 07.2 19.6 C 704 – Lincoln Laboratory ETS, New Mexico MPS 288041
2008 10 25.27141 00 59 33.28 +08 21 00.5 19.8 C 704 – Lincoln Laboratory ETS, New Mexico MPS 288041
2008 10 25.28294 00 59 32.72 +08 20 56.9 19.0 C 704 – Lincoln Laboratory ETS, New Mexico MPS 288041
2008 10 25.29445 00 59 32.20 +08 20 55.8 19.2 C 704 – Lincoln Laboratory ETS, New Mexico MPS 288041
2008 11 01.17566 00 54 52.84 +07 52 37.4 19.3 V 703 – Catalina Sky Survey MPS 263347
2008 11 01.18107 00 54 52.66 +07 52 35.8 18.8 V 703 – Catalina Sky Survey MPS 263347
2008 11 01.18654 00 54 52.41 +07 52 34.4 20.1 V 703 – Catalina Sky Survey MPS 263347
2008 11 01.19188 00 54 52.30 +07 52 33.9 19.6 V 703 – Catalina Sky Survey MPS 263347
2008 11 01.19696 00 54 51.96 +07 52 32.2 19.9   704 – Lincoln Laboratory ETS, New Mexico MPS 263347
2008 11 01.20863 00 54 51.54 +07 52 29.0 20.1   704 – Lincoln Laboratory ETS, New Mexico MPS 263347
2008 11 01.22033 00 54 51.07 +07 52 27.1 20.2   704 – Lincoln Laboratory ETS, New Mexico MPS 263347
2008 11 01.23205 00 54 50.66 +07 52 24.7 19.9   704 – Lincoln Laboratory ETS, New Mexico MPS 263347
2008 11 01.24373 00 54 50.14 +07 52 20.2 20.2   704 – Lincoln Laboratory ETS, New Mexico MPS 263347
2009 01 01.19738 01 07 07.06 +08 47 37.2 21.3 V G96 – Mt. Lemmon Survey MPS 270277
2009 01 01.20498 01 07 07.50 +08 47 39.4 21.3 V G96 – Mt. Lemmon Survey MPS 270277
2009 01 01.21270 01 07 07.86 +08 47 42.0 21.2 V G96 – Mt. Lemmon Survey MPS 270277
2009 01 01.22037 01 07 08.25 +08 47 43.6 21.4 V G96 – Mt. Lemmon Survey MPS 270277
2009 12 17.39380 08 26 33.32 +20 34 58.0 22.1 V G96 – Mt. Lemmon Survey MPS 308487
2009 12 17.40069 08 26 33.07 +20 34 57.9 22.1 V G96 – Mt. Lemmon Survey MPS 308487
2009 12 17.40764 08 26 32.85 +20 34 58.4 22.3 V G96 – Mt. Lemmon Survey MPS 308487
2009 12 17.41472 08 26 32.60 +20 35 00.4 21.6 V G96 – Mt. Lemmon Survey MPS 308487
2010 01 07.38985 08 10 26.76 +21 26 34.9 20.6 V G96 – Mt. Lemmon Survey MPS 310076
2010 01 07.39699 08 10 26.32 +21 26 35.9 21.0 V G96 – Mt. Lemmon Survey MPS 310076
2010 01 07.40417 08 10 25.93 +21 26 37.4 20.8 V G96 – Mt. Lemmon Survey MPS 310076
2010 01 07.41139 08 10 25.53 +21 26 37.9 21.5 V G96 – Mt. Lemmon Survey MPS 310076
2010 02 13.22860 07 36 58.96 +22 42 50.2 21.7 V G96 – Mt. Lemmon Survey MPS 316542
2010 02 13.23574 07 36 58.60 +22 42 51.1 21.5 V G96 – Mt. Lemmon Survey MPS 316542
2010 02 13.24291 07 36 58.28 +22 42 51.0 21.5 V G96 – Mt. Lemmon Survey MPS 316542
2010 02 13.25007 07 36 57.99 +22 42 51.6 21.6 V G96 – Mt. Lemmon Survey MPS 316542
2010 02 17.19400 07 34 28.41 +22 46 25.9 22.0 V G96 – Mt. Lemmon Survey MPS 316542
2010 02 17.19931 07 34 28.23 +22 46 26.4 21.9 V G96 – Mt. Lemmon Survey MPS 316542
2010 02 17.20471 07 34 27.94 +22 46 27.1 21.7 V G96 – Mt. Lemmon Survey MPS 316542
2010 02 17.21009 07 34 27.80 +22 46 26.6 21.6 V G96 – Mt. Lemmon Survey MPS 316542
2011 03 14.41791 12 37 09.87 -05 07 34.5 21.5 V G96 – Mt. Lemmon Survey MPS 375292
2011 03 14.42597 12 37 09.55 -05 07 32.2 21.1 V G96 – Mt. Lemmon Survey MPS 375292
2011 03 14.43407 12 37 09.15 -05 07 29.7 21.5 V G96 – Mt. Lemmon Survey MPS 375292
2011 03 14.44211 12 37 08.76 -05 07 28.0 21.5 V G96 – Mt. Lemmon Survey MPS 375292
2011 03 31.36919 12 22 55.861 -03 44 14.33 21.1 w F51 – Pan-STARRS 1, Haleakala MPS 378441
